TimeCST,TemperatureF,Dew PointF,Humidity,Sea Level PressureIn,VisibilityMPH,Wind Direction,Wind SpeedMPH,Gust SpeedMPH,PrecipitationIn,Events,Conditions,WindDirDegrees,DateUTC
12:15 AM,32.0,32.0,100,30.21,0.2,WNW,3.5,-,N/A,Fog,Fog,290,2012-11-05 06:15:00
12:35 AM,32.0,32.0,100,30.21,0.2,WNW,3.5,-,N/A,Fog,Fog,290,2012-11-05 06:35:00
12:55 AM,33.8,33.8,100,30.21,0.2,NW,3.5,-,N/A,Fog,Fog,320,2012-11-05 06:55:00
1:15 AM,33.8,33.8,100,30.20,0.2,WNW,3.5,-,N/A,Fog,Fog,300,2012-11-05 07:15:00
1:35 AM,33.8,33.8,100,30.20,0.2,NW,3.5,-,N/A,Fog,Fog,310,2012-11-05 07:35:00
1:55 AM,33.8,33.8,100,30.21,0.5,WNW,4.6,-,N/A,Fog,Fog,300,2012-11-05 07:55:00
2:15 AM,33.8,33.8,100,30.21,0.5,WNW,4.6,-,N/A,Fog,Fog,300,2012-11-05 08:15:00
2:35 AM,33.8,33.8,100,30.21,0.5,NW,4.6,-,N/A,Fog,Fog,310,2012-11-05 08:35:00
2:55 AM,33.8,33.8,100,30.21,0.5,WNW,3.5,-,N/A,Fog,Fog,300,2012-11-05 08:55:00
3:15 AM,33.8,33.8,100,30.21,0.5,NW,4.6,-,N/A,Fog,Fog,320,2012-11-05 09:15:00
3:35 AM,33.8,33.8,100,30.21,1.0,NW,4.6,-,N/A,,Overcast,320,2012-11-05 09:35:00
3:55 AM,33.8,33.8,100,30.20,1.0,Calm,Calm,-,N/A,,Overcast,0,2012-11-05 09:55:00
4:15 AM,33.8,33.8,100,30.20,0.5,Calm,Calm,-,N/A,Fog,Fog,0,2012-11-05 10:15:00
4:35 AM,33.8,33.8,100,30.19,0.8,Calm,Calm,-,N/A,,Overcast,0,2012-11-05 10:35:00
4:55 AM,33.8,33.8,100,30.18,1.8,West,4.6,-,N/A,,Overcast,270,2012-11-05 10:55:00
5:15 AM,33.8,33.8,100,30.18,3.0,WNW,3.5,-,N/A,,Overcast,300,2012-11-05 11:15:00
5:35 AM,33.8,33.8,100,30.17,3.0,Calm,Calm,-,N/A,,Overcast,0,2012-11-05 11:35:00
5:55 AM,33.8,33.8,100,30.18,3.0,West,3.5,-,N/A,,Overcast,270,2012-11-05 11:55:00
6:15 AM,33.8,33.8,100,30.17,3.0,West,3.5,-,N/A,,Overcast,280,2012-11-05 12:15:00
6:35 AM,33.8,33.8,100,30.17,5.0,Calm,Calm,-,N/A,,Overcast,0,2012-11-05 12:35:00
6:55 AM,32.0,32.0,100,30.16,10.0,West,5.8,-,N/A,,Overcast,260,2012-11-05 12:55:00
7:15 AM,32.0,32.0,100,30.16,10.0,West,5.8,-,N/A,,Overcast,260,2012-11-05 13:15:00
7:35 AM,32.0,32.0,100,30.16,10.0,WSW,6.9,-,N/A,,Overcast,250,2012-11-05 13:35:00
7:55 AM,32.0,32.0,100,30.15,10.0,WSW,9.2,-,N/A,,Overcast,250,2012-11-05 13:55:00
8:15 AM,32.0,32.0,100,30.15,4.0,SW,8.1,-,N/A,,Overcast,230,2012-11-05 14:15:00
8:35 AM,32.0,32.0,100,30.15,10.0,SW,11.5,-,N/A,,Overcast,230,2012-11-05 14:35:00
8:55 AM,32.0,32.0,100,30.14,10.0,SW,9.2,-,N/A,,Overcast,220,2012-11-05 14:55:00
9:15 AM,32.0,32.0,100,30.13,10.0,SW,10.4,-,N/A,,Overcast,230,2012-11-05 15:15:00
9:35 AM,33.8,33.8,100,30.12,10.0,SW,5.8,-,N/A,,Overcast,230,2012-11-05 15:35:00
9:55 AM,35.6,35.6,100,30.10,10.0,South,9.2,-,N/A,,Overcast,180,2012-11-05 15:55:00
10:15 AM,35.6,35.6,100,30.10,10.0,SSW,10.4,-,N/A,,Overcast,200,2012-11-05 16:15:00
10:35 AM,35.6,35.6,100,30.10,10.0,SSW,10.4,-,N/A,,Overcast,200,2012-11-05 16:35:00
10:55 AM,35.6,35.6,100,30.07,10.0,SSW,13.8,-,N/A,,Overcast,200,2012-11-05 16:55:00
11:15 AM,35.6,35.6,100,30.06,10.0,SSW,16.1,20.7,N/A,,Overcast,200,2012-11-05 17:15:00
11:35 AM,37.4,37.4,100,30.05,10.0,South,13.8,-,N/A,,Overcast,190,2012-11-05 17:35:00
11:55 AM,37.4,37.4,100,30.03,10.0,South,18.4,-,N/A,,Overcast,190,2012-11-05 17:55:00
12:15 PM,37.4,37.4,100,30.01,10.0,South,16.1,23.0,N/A,,Overcast,190,2012-11-05 18:15:00
12:35 PM,37.4,37.4,100,30.00,10.0,South,17.3,20.7,N/A,,Overcast,190,2012-11-05 18:35:00
12:55 PM,37.4,37.4,100,29.98,10.0,South,17.3,-,N/A,,Mostly Cloudy,190,2012-11-05 18:55:00
1:15 PM,39.2,39.2,100,29.97,10.0,SSW,17.3,20.7,N/A,Rain,Light Rain,200,2012-11-05 19:15:00
1:35 PM,39.2,39.2,100,29.96,10.0,South,13.8,19.6,N/A,Rain,Light Rain,190,2012-11-05 19:35:00
1:55 PM,39.2,39.2,100,29.95,9.0,South,15.0,20.7,N/A,Rain,Light Rain,190,2012-11-05 19:55:00
2:15 PM,39.2,39.2,100,29.93,7.0,South,15.0,-,N/A,Rain,Light Rain,180,2012-11-05 20:15:00
2:35 PM,39.2,39.2,100,29.90,10.0,South,18.4,-,N/A,,Mostly Cloudy,180,2012-11-05 20:35:00
2:55 PM,41.0,41.0,100,29.88,10.0,South,15.0,-,N/A,,Mostly Cloudy,170,2012-11-05 20:55:00
3:15 PM,41.0,41.0,100,29.87,10.0,South,15.0,-,N/A,,Mostly Cloudy,170,2012-11-05 21:15:00
3:35 PM,41.0,41.0,100,29.86,9.0,South,18.4,21.9,N/A,,Overcast,180,2012-11-05 21:35:00
4:15 PM,41.0,41.0,100,29.85,9.0,South,16.1,-,N/A,,Mostly Cloudy,190,2012-11-05 22:15:00
4:35 PM,41.0,41.0,100,29.84,8.0,South,18.4,-,N/A,Rain,Light Rain,190,2012-11-05 22:35:00
4:55 PM,41.0,41.0,100,29.83,9.0,SSW,18.4,-,N/A,,Mostly Cloudy,200,2012-11-05 22:55:00
5:15 PM,41.0,41.0,100,29.82,10.0,South,20.7,25.3,N/A,,Overcast,190,2012-11-05 23:15:00
5:35 PM,41.0,41.0,100,29.82,10.0,South,17.3,-,N/A,,Overcast,190,2012-11-05 23:35:00
5:55 PM,41.0,41.0,100,29.81,10.0,SSW,18.4,24.2,N/A,,Mostly Cloudy,200,2012-11-05 23:55:00
6:15 PM,41.0,41.0,100,29.79,10.0,SSW,17.3,21.9,N/A,,Scattered Clouds,200,2012-11-06 00:15:00
6:35 PM,41.0,41.0,100,29.80,10.0,SSW,13.8,21.9,N/A,,Clear,210,2012-11-06 00:35:00
6:55 PM,41.0,41.0,100,29.79,10.0,SSW,15.0,-,N/A,,Clear,210,2012-11-06 00:55:00
7:15 PM,41.0,41.0,100,29.79,10.0,SW,13.8,-,N/A,,Clear,220,2012-11-06 01:15:00
7:35 PM,41.0,41.0,100,29.80,10.0,WSW,10.4,-,N/A,,Scattered Clouds,240,2012-11-06 01:35:00
7:55 PM,41.0,41.0,100,29.80,10.0,WSW,12.7,-,N/A,,Mostly Cloudy,250,2012-11-06 01:55:00
8:15 PM,41.0,41.0,100,29.81,10.0,WNW,15.0,-,N/A,,Partly Cloudy,290,2012-11-06 02:15:00
8:35 PM,44.6,44.6,100,29.83,10.0,NW,21.9,25.3,N/A,,Scattered Clouds,320,2012-11-06 02:35:00
8:55 PM,44.6,44.6,100,29.85,10.0,NW,24.2,36.8,N/A,,Partly Cloudy,320,2012-11-06 02:55:00
9:15 PM,42.8,42.8,100,29.86,10.0,NW,16.1,20.7,N/A,,Partly Cloudy,320,2012-11-06 03:15:00
9:35 PM,41.0,41.0,100,29.88,10.0,NW,16.1,-,N/A,,Clear,310,2012-11-06 03:35:00
9:55 PM,41.0,39.2,93,29.89,10.0,NW,17.3,24.2,N/A,,Mostly Cloudy,310,2012-11-06 03:55:00
10:15 PM,41.0,39.2,93,29.90,10.0,NW,13.8,20.7,N/A,,Mostly Cloudy,310,2012-11-06 04:15:00
10:35 PM,41.0,37.4,87,29.90,10.0,NW,13.8,-,N/A,,Mostly Cloudy,320,2012-11-06 04:35:00
10:55 PM,39.2,37.4,93,29.91,10.0,NW,12.7,17.3,N/A,,Overcast,310,2012-11-06 04:55:00
11:15 PM,39.2,37.4,93,29.91,10.0,NW,15.0,19.6,N/A,,Overcast,310,2012-11-06 05:15:00
11:35 PM,39.2,35.6,87,29.91,10.0,NW,13.8,-,N/A,,Mostly Cloudy,310,2012-11-06 05:35:00
11:55 PM,37.4,35.6,93,29.91,10.0,WNW,15.0,-,N/A,,Partly Cloudy,300,2012-11-06 05:55:00